Date String (YYYY-MM-DD hh:mm:ss) UTC,Instrument flags,absolute air pressure of the measurement (hPa),sample flow rate (lpm),inlet stack bypass flow (lpm),air temperature of the measurement (°C),ambient temperature measured by the external sensor (°C),aerosol sample conditioner tube jacket temperature (°C),OPC LED temperature (°C),internal box temperature (°C),relative humidity of the measurement (%),span deviation,mass concentration of particles derived from Lorenz-Mie calculation of OPC scattering (μg/m³),mass concentration of particles derived from Lorenz-Mie calculation of OPC scattering (μg/m³),mass concentration of particles derived from Lorenz-Mie calculation of OPC scattering (μg/m³)
DateTimeUTC,F1_M11,P_M11,Q1_M11,Q2_M11,T1_M11,T2_M11,T3_M11,T4_M11,T5_M11,U1_M11,ZSPAN_M11,X0_M11,X2_M11,X1_M11
2023-06-23 06:00:00,SystemResetWarning,0831.1,5.02,000.00,030.6,027.8,000.0,039.0,031.6,35.4,0000.0,0009.66,0004.70,0004.17
2023-06-23 06:01:00,SystemResetWarning,0831.1,5.01,000.00,030.9,028.0,000.0,039.0,031.8,34.9,0000.6,0009.91,0004.73,0004.19
2023-06-23 06:02:00,SystemResetWarning,0831.2,4.98,000.00,031.1,028.1,000.0,039.0,031.8,34.5,0001.1,0009.84,0004.72,0004.21
2023-06-23 06:03:00,SystemResetWarning,0831.2,5.02,000.00,031.3,028.2,000.0,039.0,031.8,34.4,0000.9,0009.89,0004.76,0004.23
2023-06-23 06:04:00,SystemResetWarning,0831.1,5.00,000.00,031.4,028.3,000.0,039.1,031.9,34.4,0000.0,0009.93,0004.76,0004.22
2023-06-23 06:05:00,SystemResetWarning,0831.1,5.00,000.00,031.4,028.4,000.0,039.2,031.9,34.3,0000.0,0009.51,0004.74,0004.20
2023-06-23 06:06:00,SystemResetWarning,0831.1,5.00,000.00,031.5,028.5,000.0,039.2,031.9,34.3,0000.0,0009.48,0004.75,0004.19
2023-06-23 06:07:00,SystemResetWarning,0831.1,4.99,000.00,031.5,028.5,000.0,039.3,031.9,34.2,0000.0,0009.63,0004.75,0004.18
2023-06-23 06:08:00,SystemResetWarning,0831.2,5.00,000.00,031.5,028.6,000.0,039.4,031.9,34.7,0000.0,0009.36,0004.72,0004.17
2023-06-23 06:09:00,SystemResetWarning,0831.2,5.00,000.00,031.5,028.6,000.0,039.4,032.0,34.8,0000.0,0009.59,0004.71,0004.16
2023-06-23 06:10:00,SystemResetWarning,0831.2,5.00,000.00,031.5,028.7,000.0,039.5,032.0,34.8,0000.0,0009.44,0004.66,0004.14
2023-06-23 06:11:00,SystemResetWarning,0831.2,5.00,000.00,031.5,028.7,000.0,039.5,032.0,34.9,0000.0,0009.40,0004.66,0004.14
2023-06-23 06:12:00,SystemResetWarning,0831.2,5.00,000.00,031.5,028.7,000.0,039.6,032.0,34.9,0000.0,0008.91,0004.67,0004.14
2023-06-23 06:13:00,SystemResetWarning,0831.2,5.00,000.00,031.5,028.8,000.0,039.6,032.0,34.9,0000.0,0008.71,0004.71,0004.15
2023-06-23 06:14:00,SystemResetWarning,0831.2,5.00,000.00,031.5,028.8,000.0,039.6,032.0,34.8,0000.0,0008.67,0004.71,0004.15
2023-06-23 06:15:00,SystemResetWarning,0831.2,5.00,000.00,031.5,028.8,000.0,039.7,032.0,34.8,0000.0,0008.58,0004.69,0004.15
2023-06-23 06:16:00,SystemResetWarning,0831.2,4.99,000.00,031.5,027.7,000.0,039.6,032.1,34.8,0000.0,0008.83,0004.69,0004.16
2023-06-23 06:17:00,SystemResetWarning,0831.1,5.00,000.00,031.5,025.7,000.0,039.5,032.1,34.7,0000.0,0009.05,0004.67,0004.17
2023-06-23 06:18:00,SystemResetWarning,0831.1,5.00,000.00,031.4,025.2,000.0,039.5,031.9,34.8,0000.5,0008.97,0004.68,0004.17
2023-06-23 06:19:00,SystemResetWarning,0831.1,5.00,000.00,031.3,025.4,000.0,039.5,031.6,35.2,0002.0,0009.01,0004.76,0004.19
2023-06-23 06:20:00,SystemResetWarning,0831.1,5.01,000.00,031.3,025.8,000.0,039.5,031.6,35.3,0000.0,0008.88,0004.80,0004.20
2023-06-23 06:21:00,SystemResetWarning,0831.1,4.99,000.00,031.5,026.2,000.0,039.5,031.7,34.8,0000.8,0009.14,0004.87,0004.22
2023-06-23 06:22:00,SystemResetWarning,0831.1,4.98,000.00,031.6,026.7,000.0,039.5,031.8,34.4,0000.1,0009.69,0004.91,0004.23
2023-06-23 06:23:00,SystemResetWarning,0831.1,5.01,000.00,031.7,027.0,000.0,039.5,031.8,34.3,0002.3,0010.34,0004.95,0004.23
2023-06-23 06:24:00,SystemResetWarning,0831.1,5.01,000.00,031.7,027.3,000.0,039.5,031.8,34.2,0002.8,0010.33,0004.93,0004.20
2023-06-23 06:25:00,SystemResetWarning,0831.1,4.99,000.00,031.7,027.6,000.0,039.6,031.8,34.0,0002.7,0010.60,0004.90,0004.18
2023-06-23 06:26:00,SystemResetWarning,0831.1,4.99,000.00,031.7,027.8,000.0,039.6,031.8,34.0,0001.3,0011.08,0004.94,0004.16
2023-06-23 06:27:00,SystemResetWarning,0831.1,5.00,000.00,031.7,027.9,000.0,039.7,031.8,34.0,0000.0,0010.93,0004.94,0004.16
2023-06-23 06:28:00,SystemResetWarning,0831.2,5.01,000.00,031.7,028.1,000.0,039.7,031.8,33.8,0000.0,0010.43,0004.91,0004.15
2023-06-23 06:29:00,SystemResetWarning,0831.1,5.01,000.00,031.7,028.2,000.0,039.7,031.9,33.8,0000.0,0010.33,0004.87,0004.13
2023-06-23 06:30:00,SystemResetWarning,0831.1,5.00,000.00,031.7,028.3,000.0,039.8,031.9,33.9,0000.0,0010.10,0004.79,0004.11
2023-06-23 06:31:00,SystemResetWarning,0831.1,5.00,000.00,031.7,028.4,000.0,039.8,031.9,33.9,0000.0,0010.46,0004.76,0004.10
2023-06-23 06:32:00,SystemResetWarning,0831.1,5.00,000.00,031.7,028.4,000.0,039.8,031.9,33.8,0000.0,0010.23,0004.67,0004.07
2023-06-23 06:33:00,SystemResetWarning,0831.1,4.99,000.00,031.7,028.5,000.0,039.8,032.0,33.7,0000.0,0009.81,0004.62,0004.05
2023-06-23 06:34:00,SystemResetWarning,0831.2,5.00,000.00,031.6,028.5,000.0,039.8,032.0,33.5,0000.0,0009.26,0004.54,0004.04
2023-06-23 06:35:00,SystemResetWarning,0831.1,5.00,000.00,031.6,028.6,000.0,039.8,032.0,33.2,0000.0,0009.22,0004.54,0004.05
2023-06-23 06:36:00,SystemResetWarning,0831.1,5.00,000.00,031.6,028.6,000.0,039.8,032.0,33.0,0000.0,0008.93,0004.54,0004.07
2023-06-23 06:37:00,SystemResetWarning,0831.2,5.00,000.00,031.6,028.7,000.0,039.8,032.0,32.9,0000.0,0008.42,0004.51,0004.09
2023-06-23 06:38:00,SystemResetWarning,0831.2,5.00,000.00,031.6,028.7,000.0,039.8,032.0,32.9,0000.0,0008.58,0004.54,0004.10
2023-06-23 06:39:00,SystemResetWarning,0831.1,5.00,000.00,031.5,028.7,000.0,039.8,032.0,32.3,0000.0,0008.76,0004.60,0004.11
2023-06-23 06:40:00,SystemResetWarning,0831.1,5.00,000.00,031.5,028.7,000.0,039.8,032.0,31.6,0000.0,0008.88,0004.64,0004.13
2023-06-23 06:41:00,SystemResetWarning,0831.1,5.00,000.00,031.5,028.8,000.0,039.8,032.1,31.1,0000.0,0008.86,0004.64,0004.14
2023-06-23 06:42:00,SystemResetWarning,0831.1,5.00,000.00,031.5,028.8,000.0,039.8,032.1,31.0,0000.0,0008.28,0004.64,0004.16
2023-06-23 06:43:00,SystemResetWarning,0831.2,5.00,000.00,031.5,028.8,000.0,039.8,032.1,31.0,0000.0,0008.39,0004.68,0004.18
2023-06-23 06:44:00,SystemResetWarning,0831.2,4.99,000.00,031.5,028.3,000.0,039.8,032.2,30.7,0000.0,0008.61,0004.69,0004.19
2023-06-23 06:45:00,SystemResetWarning,0831.1,4.99,000.00,031.5,026.2,000.0,039.7,032.1,30.5,0000.0,0008.47,0004.70,0004.21
2023-06-23 06:46:00,SystemResetWarning,0831.0,5.00,000.00,031.4,025.2,000.0,039.6,032.0,30.7,0000.0,0008.59,0004.71,0004.21
2023-06-23 06:47:00,SystemResetWarning,0830.9,5.00,000.00,031.2,025.3,000.0,039.6,031.5,31.0,0000.0,0008.64,0004.74,0004.21
2023-06-23 06:48:00,SystemResetWarning,0831.0,5.01,000.00,031.1,025.7,000.0,039.6,031.5,31.3,0000.0,0008.89,0004.83,0004.22
2023-06-23 06:49:00,SystemResetWarning,0830.9,5.00,000.00,031.0,026.1,000.0,039.5,031.5,31.5,0000.0,0008.82,0004.82,0004.24
2023-06-23 06:50:00,SystemResetWarning,0830.9,4.99,000.00,030.9,026.5,000.0,039.5,031.5,31.7,0000.0,0008.90,0004.85,0004.26
2023-06-23 06:51:00,SystemResetWarning,0830.9,5.00,000.00,030.9,026.9,000.0,039.5,031.5,31.9,0000.0,0008.91,0004.89,0004.28
2023-06-23 06:52:00,SystemResetWarning,0830.9,5.00,000.00,030.9,027.2,000.0,039.4,031.5,32.1,0000.0,0008.97,0004.96,0004.31
2023-06-23 06:53:00,SystemResetWarning,0830.9,4.99,000.00,030.8,027.4,000.0,039.4,031.5,32.1,0000.0,0009.16,0005.03,0004.32
2023-06-23 06:54:00,SystemResetWarning,0830.9,4.99,000.00,030.8,027.6,000.0,039.4,031.5,32.4,0000.0,0009.05,0005.05,0004.33
2023-06-23 06:55:00,SystemResetWarning,0830.9,5.00,000.00,030.8,027.8,000.0,039.4,031.5,32.2,0000.0,0008.78,0005.09,0004.35
2023-06-23 06:56:00,SystemResetWarning,0830.9,5.01,000.00,030.7,027.9,000.0,039.3,031.6,32.2,0000.0,0008.65,0005.10,0004.35
2023-06-23 06:57:00,SystemResetWarning,0830.9,5.00,000.00,030.7,028.0,000.0,039.3,031.6,32.3,0000.0,0008.52,0005.09,0004.35
2023-06-23 06:58:00,SystemResetWarning,0830.9,5.01,000.00,030.7,028.1,000.0,039.3,031.6,32.1,0000.0,0008.54,0005.09,0004.37
2023-06-23 06:59:00,SystemResetWarning,0831.0,4.99,000.00,030.7,028.2,000.0,039.3,031.7,32.1,0000.0,0008.43,0005.03,0004.37
